Regional Weather Roundup
Issued by NWS Kansas City/Pleasant Hill, MO

Home | Current Version | Previous Version | Graphics & Text | Print | Product List | Glossary Off
Versions: 1 2 3 4 5 6 7 8 9 10 11 12 13 14 15 16 17 18 19 20 21 22 23 24 25 26 27 28

000
ASUS43 KEAX 221210
RWREAX

WEATHER ROUNDUP FOR EASTERN KANSAS AND NORTHWEST MISSOURI
NATIONAL WEATHER SERVICE KANSAS CITY/PLEASANT HILL MO
700 AM CDT FRI SEP 22 2017

KSZ040-057-103>105-MOZ028-029-037-043-221300-
...KANSAS CITY METROPOLITAN AREA...

CITY           SKY/WX    TMP DP  RH WIND       PRES   REMARKS
K.C. INTL      PTCLDY    73  70  90 S12       29.95R
6HR MIN TEMP:  73; 6HR MAX TEMP:  80;

K.C. DOWNTOWN  CLEAR     76  71  85 S9        29.94R
6HR MIN TEMP:  76; 6HR MAX TEMP:  82;

LEES SUMMIT    CLEAR     72  70  93 SE12      29.98R
6HR MIN TEMP:  72; 6HR MAX TEMP:  78;

OLATHE - IXD   CLEAR     72  69  90 S10       29.96R
6HR MIN TEMP:  72; 6HR MAX TEMP:  77;

OLATHE - OJC   CLEAR     72  70  93 S10       29.96R
6HR MIN TEMP:  71; 6HR MAX TEMP:  76;

LAWRENCE       PTCLDY    74  70  87 SE7       29.93R

$$

MOZ001>008-011>017-020>025-030>033-038>040-044>046-053-054-221300-
...NORTHERN AND CENTRAL MISSOURI...

CITY           SKY/WX    TMP DP  RH WIND       PRES   REMARKS
ST. JOSEPH     CLEAR     74  71  91 S9        29.92R
6HR MIN TEMP:  74; 6HR MAX TEMP:  80;

MOSBY          SUNNY     70  68  94 SE5       29.97R
WARRENSBURG    CLEAR     70  66  88 SE7       29.99R
WHITEMAN AFB   CLEAR     72  68  88 S8        29.99R
6HR MIN TEMP:  71; 6HR MAX TEMP:  73;

CLINTON        CLEAR     72  68  88 S6        30.00S
SEDALIA        CLEAR     71  70  96 SE8       30.02R
6HR MIN TEMP:  71; 6HR MAX TEMP:  77;

WARSAW         NOT AVBL
CHILLICOTHE      N/A     73  69  87 S8        29.99R
6HR MIN TEMP:  73; 6HR MAX TEMP:  78;

KIRKSVILLE     CLEAR     68  66  93 S7        30.02R
6HR MIN TEMP:  67; 6HR MAX TEMP:  74;


$$

MOZ041-047>049-056>058-063>065-088>090-097-221300-
...EASTERN AND SOUTHERN MISSOURI...

CITY           SKY/WX    TMP DP  RH WIND       PRES   REMARKS
ST. LOUIS INTL PTCLDY    72  69  90 E6        30.07R
6HR MIN TEMP:  71; 6HR MAX TEMP:  80;

SPIRIT OF STL  CLEAR     67  67 100 CALM      30.05R FOG
COLUMBIA       CLEAR     71  69  93 SE9       30.04R
JEFFERSON CITY PTCLDY    70  66  87 SE5       30.03R
ROLLA          CLEAR     71  68  90 S7        30.07R
OSAGE BEACH    CLEAR     70  68  93 SE6       30.05R
SPRINGFIELD    CLEAR     71  69  93 SE12      30.04R
BRANSON        PTCLDY    68  66  94 S5        30.07R
JOPLIN         CLEAR     71  70  96 SE7       30.00R
WEST PLAINS    CLEAR     68  65  90 CALM      30.08S

$$

IAZ060-094-KSZ022-034>040-054-083-096-NEZ052-066-093-221300-
...KANSAS...SOUTHEAST NEBRASKA AND IOWA...

CITY           SKY/WX    TMP DP  RH WIND       PRES   REMARKS
TOPEKA         CLEAR     76  71  85 S6        29.90S
6HR MIN TEMP:  74; 6HR MAX TEMP:  80;

MANHATTAN      PTCLDY    77  69  76 S14       29.87R
EMPORIA        CLEAR     72  69  90 S14       29.91R
CHANUTE        CLEAR     72  69  90 S10       29.96R
WICHITA        PTCLDY    73  70  90 SE13      29.89R
OMAHA          PTCLDY    77  69  76 S15       29.83S
LINCOLN        CLEAR     75  69  81 S14       29.82R
FALLS CITY     CLEAR     76  69  79 S10       29.88R
LAMONI         PTCLDY    72  69  90 S9        29.96R
DES MOINES     PTCLDY    74  69  85 SE9       29.91R

$$





USA.gov is the U.S. government's official web portal to all federal, state and local government web resources and services.